This is the latest recevied weather packets stored in our database for station/object K7TSD. If no packets are shown the sender has not sent any weather packets the latest 10 day(s).
| Time | Temp. | Humidity | Pressure | Rain* | Wind** | Luminosity | Snow |
|---|---|---|---|---|---|---|---|
| 1777607258 | 3.33° C | 65% | 1018.7 hPa | 0 mm | - | 0 W/m² | - |
| 1777606954 | 3.33° C | 64% | 1018.5 hPa | 0 mm | - | 0 W/m² | - |
| 1777606651 | 3.33° C | 64% | 1018.7 hPa | 0 mm | - | 0 W/m² | - |
| 1777606346 | 3.33° C | 65% | 1018.8 hPa | 0 mm | - | 0 W/m² | - |
| 1777606046 | 3.33° C | 64% | 1018.6 hPa | 0 mm | - | 0 W/m² | - |
| 1777605742 | 3.33° C | 64% | 1018.7 hPa | 0 mm | - | 0 W/m² | - |
| 1777605440 | 3.89° C | 64% | 1018.6 hPa | 0 mm | - | 0 W/m² | - |
| 1777605138 | 3.33° C | 64% | 1018.6 hPa | 0 mm | - | 0 W/m² | - |
| 1777604833 | 3.33° C | 65% | 1018.6 hPa | 0 mm | - | 0 W/m² | - |
| 1777604530 | 3.89° C | 65% | 1018.5 hPa | 0 mm | - | 0 W/m² | - |
| 1777604225 | 3.89° C | 64% | 1018.3 hPa | 0 mm | - | 0 W/m² | - |
| 1777603921 | 3.89° C | 64% | 1018.3 hPa | 0 mm | - | 0 W/m² | - |
| 1777603619 | 3.89° C | 64% | 1018.3 hPa | 0 mm | - | 0 W/m² | - |
| 1777603314 | 3.89° C | 64% | 1018.5 hPa | 0 mm | - | 0 W/m² | - |
| 1777603010 | 3.89° C | 62% | 1018.6 hPa | 0 mm | - | 0 W/m² | - |
| 1777602705 | 4.44° C | 62% | 1018.3 hPa | 0 mm | - | 0 W/m² | - |
| 1777602400 | 5° C | 60% | 1018 hPa | 0 mm | - | 0 W/m² | - |
| 1777602097 | 5.56° C | 57% | 1018.1 hPa | 0 mm | - | 0 W/m² | - |
| 1777601792 | 6.11° C | 56% | 1018.1 hPa | 0 mm | - | 0 W/m² | - |
| 1777601487 | 6.67° C | 54% | 1017.9 hPa | 0 mm | - | 2 W/m² | - |
| 1777601183 | 6.67° C | 55% | 1018.1 hPa | 0 mm | - | 4 W/m² | - |
| 1777600882 | 6.67° C | 53% | 1018 hPa | 0 mm | - | 7 W/m² | - |
| 1777600577 | 7.22° C | 54% | 1017.9 hPa | 0 mm | - | 10 W/m² | - |
| 1777600273 | 7.22° C | 52% | 1018.1 hPa | 0 mm | - | 12 W/m² | - |
| 1777599968 | 7.78° C | 51% | 1017.9 hPa | 0 mm | - | 15 W/m² | - |
* Rain latest hour (hover to see other rain measurements)
** Current wind speed in m/s (hover to see current wind gust speed)